status,avgMeasuredTime,avgSpeed,extID,medianMeasuredTime,TIMESTAMP,vehicleCount,_id,REPORT_ID
OK,53,34,962,53,2014-08-01T08:00:00,3,20747017,190206
OK,54,33,962,54,2014-08-01T08:10:00,4,20747839,190206
OK,46,39,962,46,2014-08-01T08:15:00,5,20748288,190206
OK,46,39,962,46,2014-08-01T08:20:00,3,20748737,190206
OK,59,31,962,59,2014-08-01T08:25:00,4,20749186,190206
OK,53,34,962,53,2014-08-01T08:30:00,7,20749635,190206
OK,47,38,962,47,2014-08-01T08:35:00,5,20750084,190206
OK,51,35,962,51,2014-08-01T08:40:00,2,20750533,190206
OK,61,30,962,61,2014-08-01T08:45:00,1,20750982,190206
OK,49,37,962,49,2014-08-01T08:50:00,1,20751431,190206
OK,44,41,962,44,2014-08-01T08:55:00,3,20751880,190206
OK,44,41,962,44,2014-08-01T09:00:00,3,20752329,190206
OK,54,33,962,54,2014-08-01T09:05:00,1,20752778,190206
OK,64,28,962,64,2014-08-01T09:10:00,2,20753227,190206
OK,76,24,962,76,2014-08-01T09:20:00,0,20754125,190206
OK,22,83,962,22,2014-08-01T09:25:00,1,20754574,190206
OK,52,35,962,52,2014-08-01T09:30:00,3,20755023,190206
OK,54,33,962,54,2014-08-01T09:35:00,2,20755472,190206
OK,36,50,962,36,2014-08-01T09:40:00,1,20755921,190206
OK,36,50,962,36,2014-08-01T09:45:00,1,20756370,190206
OK,66,27,962,66,2014-08-01T09:50:00,1,20756819,190206
OK,53,34,962,53,2014-08-01T09:55:00,2,20757268,190206
OK,55,33,962,55,2014-08-01T10:00:00,3,20757717,190206
OK,55,33,962,55,2014-08-01T10:05:00,3,20758166,190206
OK,55,33,962,55,2014-08-01T10:15:00,1,20759064,190206
OK,55,33,962,55,2014-08-01T10:20:00,0,20759513,190206
OK,73,25,962,73,2014-08-01T10:25:00,3,20759962,190206
OK,73,25,962,73,2014-08-01T10:30:00,3,20760411,190206
OK,32,57,962,32,2014-08-01T10:35:00,2,20760860,190206
OK,32,57,962,32,2014-08-01T10:40:00,2,20761309,190206
OK,59,31,962,59,2014-08-01T10:45:00,1,20761758,190206
OK,40,45,962,40,2014-08-01T10:50:00,2,20762207,190206
OK,22,83,962,22,2014-08-01T10:55:00,1,20762656,190206
OK,50,36,962,50,2014-08-01T11:00:00,1,20763105,190206
OK,50,36,962,50,2014-08-01T11:05:00,1,20763554,190206
OK,53,34,962,53,2014-08-01T11:10:00,2,20764003,190206
OK,54,33,962,54,2014-08-01T11:15:00,3,20764451,190206
OK,59,31,962,59,2014-08-01T11:20:00,1,20764900,190206
OK,75,24,962,75,2014-08-01T11:25:00,1,20765349,190206
OK,75,24,962,75,2014-08-01T11:30:00,1,20765798,190206
OK,45,40,962,45,2014-08-01T11:35:00,4,20766247,190206
OK,52,35,962,52,2014-08-01T11:40:00,5,20766696,190206
OK,57,32,962,57,2014-08-01T11:45:00,3,20767145,190206
OK,54,33,962,54,2014-08-01T11:50:00,3,20767594,190206
OK,58,31,962,58,2014-08-01T11:55:00,2,20768043,190206
OK,68,26,962,68,2014-08-01T12:00:00,1,20768492,190206
OK,52,35,962,52,2014-08-01T12:10:00,2,20769390,190206
OK,64,28,962,64,2014-08-01T12:15:00,5,20769839,190206
OK,66,27,962,66,2014-08-01T12:20:00,4,20770288,190206
OK,44,41,962,44,2014-08-01T12:25:00,2,20770737,190206
OK,43,42,962,43,2014-08-01T12:30:00,2,20771186,190206
OK,57,32,962,57,2014-08-01T12:35:00,3,20771635,190206
OK,61,30,962,61,2014-08-01T12:40:00,2,20772084,190206
OK,65,28,962,65,2014-08-01T12:45:00,1,20772533,190206
OK,54,33,962,54,2014-08-01T12:50:00,1,20772982,190206
OK,58,31,962,58,2014-08-01T12:55:00,2,20773431,190206
OK,105,17,962,105,2014-08-01T13:00:00,5,20773880,190206
OK,67,27,962,67,2014-08-01T13:05:00,7,20774329,190206
OK,53,34,962,53,2014-08-01T13:10:00,4,20774778,190206
OK,109,16,962,109,2014-08-01T13:15:00,2,20775227,190206
OK,57,32,962,57,2014-08-01T13:20:00,3,20775676,190206
OK,52,35,962,52,2014-08-01T13:25:00,1,20776125,190206
OK,55,33,962,55,2014-08-01T13:30:00,1,20776574,190206
OK,55,33,962,55,2014-08-01T13:35:00,1,20777023,190206
OK,55,33,962,55,2014-08-01T13:40:00,0,20777472,190206
OK,48,38,962,48,2014-08-01T13:45:00,3,20777921,190206
OK,60,30,962,60,2014-08-01T13:50:00,5,20778370,190206
OK,116,15,962,116,2014-08-01T14:00:00,0,20779268,190206
OK,53,34,962,53,2014-08-01T14:05:00,1,20779717,190206
OK,53,34,962,53,2014-08-01T14:10:00,1,20780166,190206
OK,53,34,962,53,2014-08-01T14:15:00,0,20780615,190206
OK,55,33,962,55,2014-08-01T14:20:00,1,20781064,190206
OK,55,33,962,55,2014-08-01T14:25:00,1,20781513,190206
OK,55,33,962,55,2014-08-01T14:30:00,0,20781962,190206
OK,55,33,962,55,2014-08-01T14:35:00,0,20782411,190206
OK,55,33,962,55,2014-08-01T14:40:00,0,20782860,190206
OK,47,38,962,47,2014-08-01T14:45:00,1,20783309,190206
OK,46,39,962,46,2014-08-01T14:50:00,2,20783758,190206
OK,43,42,962,43,2014-08-01T15:00:00,2,20784656,190206
OK,59,31,962,59,2014-08-01T15:05:00,1,20785105,190206
OK,19,96,962,19,2014-08-01T15:10:00,3,20785554,190206
OK,19,96,962,19,2014-08-01T15:15:00,3,20786003,190206
OK,51,35,962,51,2014-08-01T15:20:00,1,20786452,190206
OK,109,16,962,109,2014-08-01T15:25:00,1,20786901,190206
OK,109,16,962,109,2014-08-01T15:30:00,1,20787350,190206
OK,100,18,962,100,2014-08-01T15:35:00,2,20787799,190206
OK,54,33,962,54,2014-08-01T15:40:00,3,20788248,190206
OK,63,29,962,63,2014-08-01T15:45:00,3,20788697,190206
OK,52,35,962,52,2014-08-01T15:50:00,2,20789146,190206
OK,41,44,962,41,2014-08-01T15:55:00,1,20789595,190206
OK,41,44,962,41,2014-08-01T16:00:00,0,20790044,190206
OK,41,44,962,41,2014-08-01T16:05:00,0,20790493,190206
OK,41,44,962,41,2014-08-01T16:10:00,2,20790942,190206
OK,49,37,962,49,2014-08-01T16:15:00,3,20791391,190206
OK,63,29,962,63,2014-08-01T16:20:00,2,20791840,190206
OK,75,24,962,75,2014-08-01T16:25:00,1,20792289,190206
OK,43,42,962,43,2014-08-01T16:30:00,1,20792738,190206
OK,47,38,962,47,2014-08-01T16:35:00,2,20793187,190206
OK,52,35,962,52,2014-08-01T16:40:00,1,20793636,190206
OK,52,35,962,52,2014-08-01T16:45:00,0,20794085,190206
OK,52,35,962,52,2014-08-01T16:50:00,0,20794534,190206
OK,52,35,962,52,2014-08-01T16:55:00,0,20794983,190206
OK,115,15,962,115,2014-08-01T17:00:00,1,20795432,190206
OK,79,23,962,79,2014-08-01T17:05:00,2,20795881,190206
OK,43,42,962,43,2014-08-01T17:10:00,1,20796330,190206
OK,43,42,962,43,2014-08-01T17:15:00,0,20796779,190206
OK,43,42,962,43,2014-08-01T17:20:00,0,20797228,190206
OK,63,29,962,63,2014-08-01T17:25:00,1,20797677,190206
OK,63,29,962,63,2014-08-01T17:30:00,2,20798126,190206
OK,63,29,962,63,2014-08-01T17:35:00,0,20798575,190206
OK,44,41,962,44,2014-08-01T17:40:00,1,20799024,190206
OK,44,41,962,44,2014-08-01T17:45:00,1,20799473,190206
OK,68,26,962,68,2014-08-01T17:50:00,1,20799922,190206
OK,51,35,962,51,2014-08-01T17:55:00,2,20800371,190206
OK,35,52,962,35,2014-08-01T18:00:00,1,20800820,190206
OK,27,67,962,27,2014-08-01T18:05:00,2,20801269,190206
OK,31,59,962,31,2014-08-01T18:10:00,3,20801718,190206
OK,31,59,962,31,2014-08-01T18:15:00,1,20802167,190206
OK,115,15,962,115,2014-08-01T18:20:00,1,20802616,190206
OK,115,15,962,115,2014-08-01T18:25:00,1,20803065,190206
OK,115,15,962,115,2014-08-01T18:30:00,0,20803514,190206
OK,49,37,962,49,2014-08-01T18:35:00,2,20803963,190206
OK,47,38,962,47,2014-08-01T18:40:00,3,20804412,190206
OK,38,48,962,38,2014-08-01T18:45:00,2,20804861,190206
OK,36,50,962,36,2014-08-01T18:50:00,1,20805310,190206
OK,36,50,962,36,2014-08-01T18:55:00,0,20805759,190206
OK,36,50,962,36,2014-08-01T19:00:00,0,20806208,190206
OK,36,50,962,36,2014-08-01T19:05:00,0,20806657,190206
OK,36,50,962,36,2014-08-01T19:10:00,0,20807106,190206
OK,36,50,962,36,2014-08-01T19:15:00,0,20807555,190206
OK,45,40,962,45,2014-08-01T19:20:00,1,20808004,190206
OK,45,40,962,45,2014-08-01T19:25:00,1,20808453,190206
OK,45,40,962,45,2014-08-01T19:30:00,0,20808902,190206
OK,45,40,962,45,2014-08-01T19:35:00,0,20809351,190206
OK,46,39,962,46,2014-08-01T19:40:00,1,20809800,190206
OK,46,39,962,46,2014-08-01T19:45:00,1,20810249,190206
OK,34,53,962,34,2014-08-01T19:50:00,2,20810698,190206
OK,37,49,962,37,2014-08-01T19:55:00,4,20811147,190206
OK,32,57,962,32,2014-08-01T22:00:00,0,20816876,190206
OK,32,57,962,32,2014-08-02T00:00:00,0,20823315,190206
OK,32,57,962,32,2014-08-02T00:05:00,0,20823764,190206
OK,32,57,962,32,2014-08-02T00:10:00,0,20824213,190206
OK,32,57,962,32,2014-08-02T00:15:00,0,20824662,190206
OK,32,57,962,32,2014-08-02T00:20:00,0,20825111,190206
OK,32,57,962,32,2014-08-02T00:25:00,0,20825560,190206
OK,32,57,962,32,2014-08-02T00:30:00,0,20826009,190206
OK,32,57,962,32,2014-08-02T00:35:00,0,20826458,190206
OK,32,57,962,32,2014-08-02T00:40:00,0,20826907,190206
OK,32,57,962,32,2014-08-02T00:45:00,0,20827356,190206
OK,32,57,962,32,2014-08-02T00:50:00,0,20827805,190206
OK,32,57,962,32,2014-08-02T00:55:00,0,20828254,190206
OK,32,57,962,32,2014-08-02T01:00:00,0,20828703,190206
OK,35,52,962,35,2014-08-02T01:05:00,0,20829152,190206
OK,35,52,962,35,2014-08-02T01:10:00,0,20829601,190206
OK,35,52,962,35,2014-08-02T01:15:00,0,20830050,190206
OK,35,52,962,35,2014-08-02T01:20:00,0,20830499,190206
OK,35,52,962,35,2014-08-02T01:25:00,0,20830948,190206
OK,38,48,962,38,2014-08-02T01:30:00,2,20831397,190206
OK,38,48,962,38,2014-08-02T01:35:00,2,20831846,190206
OK,32,57,962,32,2014-08-02T01:40:00,0,20832295,190206
OK,32,57,962,32,2014-08-02T01:45:00,0,20832744,190206
OK,32,57,962,32,2014-08-02T01:50:00,0,20833193,190206
OK,32,57,962,32,2014-08-02T01:55:00,0,20833642,190206
OK,43,42,962,43,2014-08-02T02:00:00,2,20834091,190206
OK,43,42,962,43,2014-08-02T02:05:00,2,20834540,190206
OK,34,53,962,34,2014-08-02T02:10:00,1,20834989,190206
OK,34,53,962,34,2014-08-02T02:15:00,0,20835438,190206
OK,34,53,962,34,2014-08-02T02:20:00,0,20835887,190206
OK,34,53,962,34,2014-08-02T02:25:00,0,20836336,190206
OK,34,53,962,34,2014-08-02T02:30:00,0,20836785,190206
OK,34,53,962,34,2014-08-02T02:35:00,0,20837234,190206
OK,34,53,962,34,2014-08-02T02:40:00,0,20837683,190206
OK,34,53,962,34,2014-08-02T02:45:00,0,20838132,190206
OK,34,53,962,34,2014-08-02T02:50:00,0,20838581,190206
OK,34,53,962,34,2014-08-02T02:55:00,0,20839030,190206
OK,34,53,962,34,2014-08-02T03:00:00,0,20839479,190206
OK,34,53,962,34,2014-08-02T03:05:00,0,20839928,190206
OK,34,53,962,34,2014-08-02T03:10:00,0,20840377,190206
OK,34,53,962,34,2014-08-02T03:15:00,0,20840826,190206
OK,34,53,962,34,2014-08-02T03:20:00,0,20841275,190206
OK,30,61,962,30,2014-08-02T03:25:00,1,20841724,190206
OK,30,61,962,30,2014-08-02T03:30:00,0,20842173,190206
OK,30,61,962,30,2014-08-02T03:35:00,0,20842622,190206
OK,30,61,962,30,2014-08-02T03:40:00,0,20843071,190206
OK,30,61,962,30,2014-08-02T03:45:00,0,20843520,190206
OK,30,61,962,30,2014-08-02T03:50:00,0,20843969,190206
OK,30,61,962,30,2014-08-02T03:55:00,0,20844418,190206
OK,129,14,962,129,2014-08-02T06:00:00,0,20851872,190206
OK,129,14,962,129,2014-08-02T06:05:00,0,20852321,190206
OK,129,14,962,129,2014-08-02T06:10:00,0,20852770,190206
OK,129,14,962,129,2014-08-02T06:15:00,0,20853219,190206
OK,129,14,962,129,2014-08-02T06:20:00,0,20853668,190206
OK,36,50,962,36,2014-08-02T06:25:00,1,20854117,190206
OK,36,50,962,36,2014-08-02T06:30:00,1,20854566,190206
OK,36,50,962,36,2014-08-02T06:35:00,0,20855015,190206
OK,36,50,962,36,2014-08-02T06:40:00,0,20855464,190206
OK,36,50,962,36,2014-08-02T06:45:00,0,20855913,190206
OK,40,45,962,40,2014-08-02T06:50:00,1,20856362,190206
OK,40,45,962,40,2014-08-02T06:55:00,1,20856811,190206
OK,40,45,962,40,2014-08-02T07:00:00,0,20857260,190206
OK,36,50,962,36,2014-08-02T07:05:00,1,20857709,190206
OK,36,50,962,36,2014-08-02T07:10:00,0,20858158,190206
OK,36,50,962,36,2014-08-02T07:15:00,0,20858607,190206
OK,43,42,962,43,2014-08-02T07:20:00,3,20859056,190206
OK,43,42,962,43,2014-08-02T07:25:00,3,20859505,190206
OK,43,42,962,43,2014-08-02T07:30:00,0,20859954,190206
OK,21,87,962,21,2014-08-02T07:35:00,1,20860403,190206
OK,21,87,962,21,2014-08-02T07:40:00,1,20860852,190206
OK,43,42,962,43,2014-08-02T07:45:00,1,20861301,190206
OK,43,42,962,43,2014-08-02T07:50:00,0,20861750,190206
OK,135,13,962,135,2014-08-02T07:55:00,1,20862199,190206
OK,88,20,962,88,2014-08-02T08:00:00,2,20862648,190206
OK,42,43,962,42,2014-08-02T08:05:00,0,20863097,190206
OK,42,43,962,42,2014-08-02T08:10:00,0,20863546,190206
OK,42,43,962,42,2014-08-02T08:15:00,0,20863995,190206
OK,41,44,962,41,2014-08-02T08:20:00,2,20864444,190206
OK,57,32,962,57,2014-08-02T08:25:00,1,20864893,190206
OK,57,32,962,57,2014-08-02T08:30:00,1,20865342,190206
OK,53,34,962,53,2014-08-02T08:35:00,3,20865791,190206
OK,47,38,962,47,2014-08-02T08:40:00,2,20866240,190206
OK,41,44,962,41,2014-08-02T08:45:00,1,20866689,190206
OK,41,44,962,41,2014-08-02T08:50:00,0,20867138,190206
OK,79,23,962,79,2014-08-02T08:55:00,3,20867587,190206
OK,101,18,962,101,2014-08-02T09:00:00,2,20868036,190206
OK,79,23,962,79,2014-08-02T09:05:00,0,20868485,190206
OK,79,23,962,79,2014-08-02T09:10:00,0,20868934,190206
OK,79,23,962,79,2014-08-02T09:15:00,0,20869383,190206
OK,33,55,962,33,2014-08-02T09:20:00,1,20869832,190206
OK,33,55,962,33,2014-08-02T09:25:00,1,20870281,190206
OK,51,35,962,51,2014-08-02T09:30:00,1,20870730,190206
OK,51,35,962,51,2014-08-02T09:35:00,1,20871179,190206
OK,59,31,962,59,2014-08-02T09:40:00,1,20871628,190206
OK,42,43,962,42,2014-08-02T09:45:00,3,20872077,190206
OK,42,43,962,42,2014-08-02T09:50:00,2,20872526,190206
OK,112,16,962,112,2014-08-02T09:55:00,1,20872975,190206
OK,117,15,962,117,2014-08-02T10:00:00,2,20873424,190206
OK,122,15,962,122,2014-08-02T10:05:00,0,20873873,190206
OK,122,15,962,122,2014-08-02T10:10:00,0,20874322,190206
OK,122,15,962,122,2014-08-02T10:15:00,0,20874771,190206
OK,122,15,962,122,2014-08-02T10:20:00,0,20875220,190206
OK,44,41,962,44,2014-08-02T10:25:00,4,20875669,190206
OK,80,22,962,80,2014-08-02T10:30:00,2,20876118,190206
OK,103,17,962,103,2014-08-02T10:35:00,1,20876567,190206
OK,103,17,962,103,2014-08-02T10:40:00,0,20877016,190206
OK,103,17,962,103,2014-08-02T10:45:00,0,20877465,190206
OK,103,17,962,103,2014-08-02T10:50:00,0,20877914,190206
OK,103,17,962,103,2014-08-02T10:55:00,0,20878363,190206
OK,51,35,962,51,2014-08-02T11:00:00,1,20878812,190206
OK,51,35,962,51,2014-08-02T11:05:00,1,20879261,190206
OK,48,38,962,48,2014-08-02T11:10:00,2,20879710,190206
OK,53,34,962,53,2014-08-02T11:15:00,3,20880159,190206
OK,47,38,962,47,2014-08-02T11:20:00,3,20880608,190206
OK,46,39,962,46,2014-08-02T11:25:00,2,20881057,190206
OK,56,32,962,56,2014-08-02T11:30:00,2,20881506,190206
OK,72,25,962,72,2014-08-02T11:35:00,1,20881955,190206
OK,45,40,962,45,2014-08-02T11:40:00,2,20882404,190206
OK,65,28,962,65,2014-08-02T11:45:00,3,20882853,190206
OK,77,23,962,77,2014-08-02T11:50:00,1,20883302,190206
OK,19,96,962,19,2014-08-02T11:55:00,1,20883751,190206
OK,19,96,962,19,2014-08-02T12:00:00,1,20884200,190206
OK,51,35,962,51,2014-08-02T12:05:00,1,20884649,190206
OK,51,35,962,51,2014-08-02T12:10:00,1,20885098,190206
OK,72,25,962,72,2014-08-02T12:15:00,2,20885547,190206
OK,72,25,962,72,2014-08-02T12:20:00,2,20885996,190206
OK,54,33,962,54,2014-08-02T12:25:00,1,20886445,190206
OK,54,33,962,54,2014-08-02T12:30:00,2,20886894,190206
OK,60,30,962,60,2014-08-02T12:35:00,2,20887343,190206
OK,71,25,962,71,2014-08-02T12:40:00,2,20887792,190206
OK,63,29,962,63,2014-08-02T12:45:00,2,20888241,190206
OK,51,35,962,51,2014-08-02T12:50:00,1,20888690,190206
OK,68,26,962,68,2014-08-02T12:55:00,2,20889139,190206
OK,72,25,962,72,2014-08-02T13:00:00,3,20889588,190206
OK,86,21,962,86,2014-08-02T13:05:00,2,20890037,190206
OK,72,25,962,72,2014-08-02T13:10:00,0,20890486,190206
OK,59,31,962,59,2014-08-02T13:15:00,1,20890935,190206
OK,91,20,962,91,2014-08-02T13:20:00,2,20891384,190206
OK,91,20,962,91,2014-08-02T13:25:00,2,20891833,190206
OK,49,37,962,49,2014-08-02T13:30:00,2,20892282,190206
OK,49,37,962,49,2014-08-02T13:35:00,2,20892731,190206
OK,49,37,962,49,2014-08-02T13:40:00,0,20893180,190206
OK,38,48,962,38,2014-08-02T13:45:00,2,20893629,190206
OK,41,44,962,41,2014-08-02T13:50:00,1,20894078,190206
OK,40,45,962,40,2014-08-02T13:55:00,1,20894527,190206
OK,40,45,962,40,2014-08-02T14:00:00,1,20894976,190206
OK,40,45,962,40,2014-08-02T14:05:00,0,20895425,190206
OK,40,45,962,40,2014-08-02T14:10:00,0,20895874,190206
OK,40,45,962,40,2014-08-02T14:15:00,0,20896323,190206
OK,48,38,962,48,2014-08-02T14:20:00,2,20896772,190206
OK,48,38,962,48,2014-08-02T14:25:00,2,20897221,190206
OK,66,27,962,66,2014-08-02T14:30:00,2,20897670,190206
OK,66,27,962,66,2014-08-02T14:35:00,2,20898119,190206
OK,66,27,962,66,2014-08-02T14:40:00,0,20898568,190206
OK,66,27,962,66,2014-08-02T14:45:00,0,20899017,190206
OK,66,27,962,66,2014-08-02T14:50:00,0,20899466,190206
OK,68,26,962,68,2014-08-02T14:55:00,2,20899915,190206
OK,46,39,962,46,2014-08-02T15:00:00,5,20900364,190206
OK,46,39,962,46,2014-08-02T15:05:00,3,20900813,190206
OK,43,42,962,43,2014-08-02T15:10:00,0,20901262,190206
OK,43,42,962,43,2014-08-02T15:15:00,0,20901711,190206
OK,43,42,962,43,2014-08-02T15:20:00,0,20902160,190206
OK,41,44,962,41,2014-08-02T15:25:00,2,20902609,190206
OK,57,32,962,57,2014-08-02T15:30:00,3,20903058,190206
OK,54,33,962,54,2014-08-02T15:35:00,2,20903507,190206
OK,54,33,962,54,2014-08-02T15:40:00,3,20903956,190206
OK,57,32,962,57,2014-08-02T15:45:00,2,20904405,190206
OK,32,57,962,32,2014-08-02T15:50:00,0,20904854,190206
OK,32,57,962,32,2014-08-02T15:55:00,0,20905303,190206
OK,32,57,962,32,2014-08-02T16:00:00,0,20905752,190206
OK,32,57,962,32,2014-08-02T16:05:00,0,20906201,190206
OK,32,57,962,32,2014-08-02T16:10:00,0,20906650,190206
OK,32,57,962,32,2014-08-02T16:15:00,0,20907099,190206
OK,32,57,962,32,2014-08-02T16:20:00,0,20907548,190206
OK,64,28,962,64,2014-08-02T16:25:00,2,20907997,190206
OK,62,29,962,62,2014-08-02T16:30:00,3,20908446,190206
OK,33,55,962,33,2014-08-02T16:35:00,2,20908895,190206
OK,19,96,962,19,2014-08-02T16:40:00,0,20909344,190206
OK,19,96,962,19,2014-08-02T16:45:00,0,20909793,190206
OK,19,96,962,19,2014-08-02T16:50:00,0,20910242,190206
OK,19,96,962,19,2014-08-02T16:55:00,0,20910691,190206
OK,19,96,962,19,2014-08-02T17:00:00,0,20911140,190206
OK,19,96,962,19,2014-08-02T17:05:00,0,20911589,190206
OK,19,96,962,19,2014-08-02T17:10:00,0,20912038,190206
OK,19,96,962,19,2014-08-02T17:15:00,0,20912487,190206
OK,19,96,962,19,2014-08-02T17:20:00,0,20912936,190206
OK,19,96,962,19,2014-08-02T17:25:00,0,20913385,190206
OK,41,44,962,41,2014-08-02T17:30:00,1,20913834,190206
OK,33,55,962,33,2014-08-02T17:35:00,4,20914283,190206
OK,33,55,962,33,2014-08-02T17:40:00,0,20914732,190206
OK,33,55,962,33,2014-08-02T17:45:00,0,20915181,190206
OK,43,42,962,43,2014-08-02T17:50:00,1,20915630,190206
OK,43,42,962,43,2014-08-02T17:55:00,1,20916079,190206
OK,40,45,962,40,2014-08-02T18:00:00,1,20916528,190206
OK,40,45,962,40,2014-08-02T18:05:00,1,20916977,190206
OK,40,45,962,40,2014-08-02T18:10:00,0,20917426,190206
OK,40,45,962,40,2014-08-02T18:15:00,0,20917875,190206
OK,40,45,962,40,2014-08-02T18:20:00,0,20918324,190206
OK,51,35,962,51,2014-08-02T18:25:00,2,20918773,190206
OK,51,35,962,51,2014-08-02T18:30:00,2,20919222,190206
OK,51,35,962,51,2014-08-02T18:35:00,0,20919671,190206
OK,51,35,962,51,2014-08-02T18:40:00,0,20920120,190206
OK,51,35,962,51,2014-08-02T18:45:00,0,20920569,190206
OK,51,35,962,51,2014-08-02T18:50:00,0,20921018,190206
OK,51,35,962,51,2014-08-02T18:55:00,0,20921467,190206
OK,51,35,962,51,2014-08-02T19:00:00,0,20921916,190206
OK,51,35,962,51,2014-08-02T19:05:00,0,20922365,190206
OK,51,35,962,51,2014-08-02T19:10:00,0,20922814,190206
OK,51,35,962,51,2014-08-02T19:15:00,0,20923263,190206
OK,51,35,962,51,2014-08-02T19:20:00,0,20923712,190206
OK,51,35,962,51,2014-08-02T19:25:00,0,20924161,190206
OK,51,35,962,51,2014-08-02T19:30:00,0,20924610,190206
OK,36,50,962,36,2014-08-02T19:35:00,1,20925059,190206
OK,36,50,962,36,2014-08-02T19:40:00,1,20925508,190206
OK,36,50,962,36,2014-08-02T19:45:00,0,20925957,190206
OK,36,50,962,36,2014-08-02T19:50:00,0,20926406,190206
OK,36,50,962,36,2014-08-02T19:55:00,0,20926855,190206
OK,36,50,962,36,2014-08-02T20:00:00,0,20927304,190206
OK,36,50,962,36,2014-08-02T20:05:00,0,20927753,190206
OK,46,39,962,46,2014-08-02T20:10:00,2,20928202,190206
OK,43,42,962,43,2014-08-02T20:15:00,3,20928651,190206
OK,41,44,962,41,2014-08-02T20:20:00,1,20929100,190206
OK,53,34,962,53,2014-08-02T20:25:00,1,20929549,190206
OK,53,34,962,53,2014-08-02T20:30:00,1,20929998,190206
OK,53,34,962,53,2014-08-02T20:35:00,0,20930447,190206
OK,53,34,962,53,2014-08-02T20:40:00,0,20930896,190206
OK,53,34,962,53,2014-08-02T20:45:00,0,20931345,190206
OK,53,34,962,53,2014-08-02T20:50:00,0,20931794,190206
OK,42,43,962,42,2014-08-02T20:55:00,2,20932243,190206
OK,39,46,962,39,2014-08-02T21:00:00,3,20932692,190206
OK,39,46,962,39,2014-08-02T21:05:00,0,20933141,190206
OK,39,46,962,39,2014-08-02T21:10:00,0,20933590,190206
OK,39,46,962,39,2014-08-02T21:15:00,0,20934039,190206
OK,39,46,962,39,2014-08-02T21:20:00,0,20934488,190206
OK,35,52,962,35,2014-08-02T21:25:00,1,20934937,190206
OK,35,52,962,35,2014-08-02T21:30:00,0,20935386,190206
OK,35,52,962,35,2014-08-02T21:35:00,0,20935835,190206
OK,35,52,962,35,2014-08-02T21:40:00,0,20936284,190206
OK,35,52,962,35,2014-08-02T21:45:00,0,20936733,190206
OK,38,48,962,38,2014-08-02T21:50:00,3,20937182,190206
OK,39,46,962,39,2014-08-02T21:55:00,4,20937631,190206
OK,68,26,962,68,2014-08-02T22:00:00,0,20938080,190206
OK,68,26,962,68,2014-08-02T22:05:00,0,20938529,190206
OK,68,26,962,68,2014-08-02T22:10:00,0,20938978,190206
OK,32,57,962,32,2014-08-02T22:15:00,1,20939427,190206
OK,32,57,962,32,2014-08-02T22:20:00,0,20939876,190206
OK,32,57,962,32,2014-08-02T22:25:00,0,20940325,190206
OK,32,57,962,32,2014-08-02T22:30:00,0,20940774,190206
OK,32,57,962,32,2014-08-02T22:35:00,1,20941223,190206
OK,32,57,962,32,2014-08-02T22:40:00,1,20941672,190206
OK,32,57,962,32,2014-08-02T22:45:00,0,20942121,190206
OK,32,57,962,32,2014-08-02T22:50:00,0,20942570,190206
OK,32,57,962,32,2014-08-02T22:55:00,0,20943019,190206
OK,33,55,962,33,2014-08-02T23:00:00,1,20943468,190206
OK,33,55,962,33,2014-08-02T23:10:00,0,20943917,190206
OK,33,55,962,33,2014-08-02T23:15:00,0,20944366,190206
OK,33,55,962,33,2014-08-02T23:20:00,0,20944815,190206
OK,33,55,962,33,2014-08-02T23:25:00,0,20945264,190206
OK,33,55,962,33,2014-08-02T23:30:00,0,20945713,190206
OK,33,55,962,33,2014-08-02T23:35:00,0,20946162,190206
OK,33,55,962,33,2014-08-02T23:40:00,0,20946611,190206
OK,33,55,962,33,2014-08-02T23:45:00,0,20947060,190206
OK,33,55,962,33,2014-08-02T23:50:00,0,20947509,190206
OK,33,55,962,33,2014-08-02T23:55:00,0,20947958,190206
OK,33,55,962,33,2014-08-03T00:00:00,0,20948407,190206
OK,33,55,962,33,2014-08-03T00:05:00,0,20948856,190206
OK,33,55,962,33,2014-08-03T00:10:00,0,20949304,190206
OK,33,55,962,33,2014-08-03T00:15:00,0,20949753,190206
OK,33,55,962,33,2014-08-03T00:20:00,0,20950202,190206
OK,33,55,962,33,2014-08-03T00:25:00,0,20950651,190206
OK,33,55,962,33,2014-08-03T00:30:00,0,20951100,190206
OK,73,25,962,73,2014-08-03T00:35:00,2,20951549,190206
OK,73,25,962,73,2014-08-03T00:40:00,0,20951998,190206
OK,73,25,962,73,2014-08-03T00:45:00,0,20952447,190206
OK,73,25,962,73,2014-08-03T00:50:00,0,20952896,190206
OK,73,25,962,73,2014-08-03T00:55:00,0,20953345,190206
OK,73,25,962,73,2014-08-03T01:00:00,0,20953794,190206
OK,73,25,962,73,2014-08-03T01:05:00,0,20954243,190206
OK,73,25,962,73,2014-08-03T01:10:00,0,20954692,190206
OK,73,25,962,73,2014-08-03T01:15:00,0,20955141,190206
OK,73,25,962,73,2014-08-03T01:20:00,0,20955590,190206
OK,73,25,962,73,2014-08-03T01:25:00,0,20956039,190206
OK,31,59,962,31,2014-08-03T01:30:00,1,20956488,190206
OK,31,59,962,31,2014-08-03T01:35:00,0,20956937,190206
OK,31,59,962,31,2014-08-03T01:40:00,0,20957386,190206
OK,56,32,962,56,2014-08-03T01:45:00,0,20957835,190206
OK,56,32,962,56,2014-08-03T01:50:00,0,20958284,190206
OK,56,32,962,56,2014-08-03T01:55:00,0,20958733,190206
OK,56,32,962,56,2014-08-03T02:00:00,0,20959182,190206
OK,56,32,962,56,2014-08-03T02:05:00,0,20959631,190206
OK,56,32,962,56,2014-08-03T02:10:00,0,20960080,190206
OK,56,32,962,56,2014-08-03T02:15:00,0,20960529,190206
OK,39,46,962,39,2014-08-03T02:20:00,1,20960978,190206
OK,39,46,962,39,2014-08-03T02:25:00,1,20961427,190206
OK,39,46,962,39,2014-08-03T02:30:00,0,20961876,190206